User: anonymous   Login
Location: Unspecified
(0.0000°N, 0.0000°E)
Time: 20:39:55
(UTC+00:00)
Language:

Cosmos 2088 - Orbit

View from above orbital plane
View from above orbital plane
View from above satellite
View from above satellite

Ground track
Ground track

The orbit data is extracted from the following two-line orbital elements,

1 20720U 90066A   18142.90811326 -.00000022 +00000-0 -38458-4 0  9996
2 20720 073.6013 021.3175 0025419 155.0709 285.3118 12.40734521259586
Epoch (UTC): 22 May 2018 21:47:40
Eccentricity: 0.0025419
inclination: 73.6013°
perigee height: 1483 km
apogee height: 1523 km
right ascension of ascending node: 21.3175°
argument of perigee: 155.0709°
revolutions per day: 12.40734521
mean anomaly at epoch: 285.3118°
orbit number at epoch: 25958

The dashed part of the orbit path shows where the satellite is in the earth's shadow,  

DLR